• In Denmark
  • List of Countries
  • For 7 days
  • Water Temperature
  • Satellite Maps
  • Weather Map
  • Weather Widgets
  • user-avatar
    Login

    Hourly Weather Jerusalem

    Today, 19 November, Sunday

    Time Temperature Precipitation Wind Pressure Humidity
    00:00 +17°C° 0 mm 2 mps 693 mmHg 56%
    01:00 +17°C° 0 mm 2 mps 693 mmHg 60%
    02:00 +16°C° 0 mm 2 mps 692 mmHg 70%
    03:00 +16°C° 0 mm 2 mps 692 mmHg 73%
    04:00 +16°C° 0 mm 2 mps 693 mmHg 76%
    05:00 +15°C° 0 mm 2 mps 693 mmHg 80%
    06:00 +16°C° 0 mm 2 mps 693 mmHg 77%
    07:00 +17°C° 0 mm 2 mps 693 mmHg 74%
    08:00 +17°C° 0 mm 2 mps 694 mmHg 69%
    09:00 +18°C° 0 mm 2 mps 694 mmHg 65%
    10:00 +19°C° 0 mm 2 mps 694 mmHg 61%
    11:00 +19°C° 0 mm 2 mps 694 mmHg 57%
    12:00 +19°C° 0 mm 3 mps 694 mmHg 55%
    13:00 +20°C° 0 mm 3 mps 694 mmHg 54%
    14:00 +20°C° 0 mm 3 mps 694 mmHg 52%
    15:00 +19°C° 0 mm 3 mps 694 mmHg 56%
    16:00 +18°C° 0 mm 3 mps 694 mmHg 59%
    17:00 +17°C° 0 mm 3 mps 694 mmHg 63%
    18:00 +17°C° 0 mm 2 mps 694 mmHg 66%
    19:00 +16°C° 0 mm 2 mps 694 mmHg 68%
    20:00 +16°C° 0 mm 1 mps 694 mmHg 71%
    21:00 +15°C° 0 mm 1 mps 694 mmHg 73%
    22:00 +15°C° 0 mm 1 mps 694 mmHg 75%
    23:00 +14°C° 0 mm 1 mps 694 mmHg 77%

    Tomorrow, 20 November, Monday

    Time Temperature Precipitation Wind Pressure Humidity
    00:00 +14°C° 0 mm 1 mps 694 mmHg 78%
    01:00 +13°C° 0 mm 0 mps 694 mmHg 78%
    02:00 +12°C° 0 mm 0 mps 694 mmHg 79%
    03:00 +12°C° 0 mm 0 mps 694 mmHg 79%
    04:00 +12°C° 0 mm 0 mps 694 mmHg 79%
    05:00 +11°C° 0 mm 0 mps 693 mmHg 79%
    06:00 +13°C° 0 mm 1 mps 694 mmHg 74%
    07:00 +14°C° 0 mm 1 mps 694 mmHg 68%
    08:00 +15°C° 0 mm 1 mps 694 mmHg 63%
    09:00 +16°C° 0 mm 1 mps 694 mmHg 58%
    10:00 +17°C° 0 mm 2 mps 694 mmHg 52%
    11:00 +18°C° 0 mm 2 mps 694 mmHg 47%
    12:00 +18°C° 0 mm 3 mps 694 mmHg 46%
    13:00 +18°C° 0 mm 3 mps 694 mmHg 45%
    14:00 +19°C° 0 mm 4 mps 693 mmHg 44%
    15:00 +18°C° 0 mm 4 mps 693 mmHg 48%
    16:00 +17°C° 0 mm 4 mps 693 mmHg 53%
    17:00 +15°C° 0 mm 4 mps 693 mmHg 57%
    18:00 +16°C° 0.1 mm 3 mps 693 mmHg 60%
    19:00 +14°C° 0.1 mm 3 mps 693 mmHg 62%
    20:00 +15°C° 0.1 mm 2 mps 693 mmHg 64%
    21:00 +14°C° 0.1 mm 2 mps 693 mmHg 64%
    22:00 +14°C° 0.1 mm 2 mps 693 mmHg 64%
    23:00 +13°C° 0.1 mm 3 mps 693 mmHg 64%

    Day after tomorrow, 21 November, Tuesday

    Time Temperature Precipitation Wind Pressure Humidity
    00:00 +13°C° 0.1 mm 3 mps 693 mmHg 64%
    01:00 +12°C° 0.1 mm 3 mps 692 mmHg 63%
    02:00 +12°C° 0.1 mm 4 mps 692 mmHg 63%
    03:00 +12°C° 0.2 mm 4 mps 692 mmHg 62%
    04:00 +12°C° 0.2 mm 5 mps 692 mmHg 61%
    05:00 +12°C° 0.2 mm 5 mps 691 mmHg 61%
    06:00 +11°C° 0.4 mm 6 mps 692 mmHg 63%
    07:00 +12°C° 0.4 mm 7 mps 692 mmHg 65%
    08:00 +12°C° 0.4 mm 8 mps 692 mmHg 67%
    09:00 +12°C° 0.5 mm 8 mps 692 mmHg 66%
    10:00 +13°C° 0.5 mm 9 mps 692 mmHg 66%
    11:00 +13°C° 0.5 mm 9 mps 692 mmHg 66%
    12:00 +13°C° 0.5 mm 9 mps 692 mmHg 65%
    13:00 +12°C° 0.5 mm 9 mps 692 mmHg 65%
    14:00 +12°C° 0.5 mm 8 mps 691 mmHg 64%
    15:00 +12°C° 0.1 mm 8 mps 692 mmHg 63%
    16:00 +11°C° 0.1 mm 8 mps 692 mmHg 63%
    17:00 +11°C° 0.1 mm 7 mps 692 mmHg 62%
    18:00 +11°C° 0.1 mm 7 mps 692 mmHg 63%
    19:00 +11°C° 0.1 mm 7 mps 692 mmHg 64%
    20:00 +10°C° 0.1 mm 6 mps 692 mmHg 65%
    21:00 +10°C° 0.1 mm 6 mps 693 mmHg 65%
    22:00 +10°C° 0.1 mm 6 mps 693 mmHg 64%
    23:00 +10°C° 0.1 mm 6 mps 693 mmHg 64%

    22 November, Wednesday

    Time Temperature Precipitation Wind Pressure Humidity
    00:00 +9°C° 0.1 mm 6 mps 693 mmHg 66%
    01:00 +9°C° 0.1 mm 6 mps 693 mmHg 67%
    02:00 +9°C° 0.1 mm 6 mps 692 mmHg 68%
    03:00 +9°C° 0.2 mm 5 mps 692 mmHg 69%
    04:00 +9°C° 0.2 mm 5 mps 692 mmHg 69%
    05:00 +9°C° 0.2 mm 5 mps 692 mmHg 69%
    06:00 +9°C° 0.1 mm 5 mps 693 mmHg 67%
    07:00 +10°C° 0.1 mm 5 mps 693 mmHg 64%
    08:00 +10°C° 0.1 mm 5 mps 693 mmHg 61%
    09:00 +12°C° 0.1 mm 5 mps 694 mmHg 59%
    10:00 +12°C° 0.1 mm 5 mps 694 mmHg 57%
    11:00 +13°C° 0.1 mm 5 mps 694 mmHg 55%
    12:00 +13°C° 0.2 mm 5 mps 694 mmHg 55%
    13:00 +13°C° 0.2 mm 5 mps 694 mmHg 56%
    14:00 +13°C° 0.2 mm 4 mps 693 mmHg 56%
    15:00 +12°C° 0.1 mm 4 mps 693 mmHg 57%
    16:00 +12°C° 0.1 mm 4 mps 694 mmHg 57%
    17:00 +12°C° 0.1 mm 3 mps 694 mmHg 58%
    18:00 +11°C° 0 mm 3 mps 694 mmHg 59%
    19:00 +12°C° 0 mm 2 mps 694 mmHg 60%
    20:00 +12°C° 0 mm 2 mps 695 mmHg 61%
    21:00 +10°C° 0 mm 2 mps 695 mmHg 62%
    22:00 +10°C° 0 mm 2 mps 695 mmHg 63%
    23:00 +11°C° 0 mm 1 mps 695 mmHg 64%

    23 November, Thursday

    Time Temperature Precipitation Wind Pressure Humidity
    00:00 +9°C° 0 mm 2 mps 695 mmHg 65%
    01:00 +9°C° 0 mm 2 mps 695 mmHg 66%
    02:00 +9°C° 0 mm 2 mps 694 mmHg 68%
    03:00 +9°C° 0 mm 2 mps 694 mmHg 69%
    04:00 +9°C° 0 mm 2 mps 694 mmHg 71%
    05:00 +8°C° 0 mm 2 mps 695 mmHg 72%
    06:00 +9°C° 0 mm 2 mps 695 mmHg 70%
    07:00 +9°C° 0 mm 2 mps 695 mmHg 68%
    08:00 +10°C° 0 mm 2 mps 696 mmHg 66%
    09:00 +12°C° 0 mm 2 mps 696 mmHg 62%
    10:00 +13°C° 0 mm 2 mps 696 mmHg 57%
    11:00 +14°C° 0 mm 1 mps 696 mmHg 53%
    12:00 +14°C° 0 mm 1 mps 696 mmHg 52%
    13:00 +14°C° 0 mm 1 mps 695 mmHg 51%
    14:00 +14°C° 0 mm 1 mps 695 mmHg 51%
    15:00 +14°C° 0 mm 1 mps 695 mmHg 52%
    16:00 +13°C° 0 mm 1 mps 695 mmHg 54%
    17:00 +13°C° 0 mm 1 mps 695 mmHg 56%
    18:00 +12°C° 0 mm 1 mps 695 mmHg 58%
    19:00 +11°C° 0 mm 0 mps 696 mmHg 59%
    20:00 +11°C° 0 mm 0 mps 696 mmHg 61%
    21:00 +10°C° 0 mm 0 mps 696 mmHg 63%
    22:00 +10°C° 0 mm 0 mps 696 mmHg 64%
    23:00 +10°C° 0 mm 1 mps 696 mmHg 65%

    24 November, Friday

    Time Temperature Precipitation Wind Pressure Humidity
    00:00 +10°C° 0 mm 1 mps 695 mmHg 66%
    01:00 +10°C° 0 mm 1 mps 695 mmHg 66%
    02:00 +9°C° 0 mm 1 mps 695 mmHg 67%
    03:00 +9°C° 0 mm 1 mps 695 mmHg 67%
    04:00 +9°C° 0 mm 1 mps 695 mmHg 67%
    05:00 +9°C° 0 mm 1 mps 695 mmHg 67%
    06:00 +10°C° 0 mm 1 mps 696 mmHg 63%
    07:00 +10°C° 0 mm 1 mps 696 mmHg 59%
    08:00 +11°C° 0 mm 1 mps 696 mmHg 55%
    09:00 +12°C° 0 mm 1 mps 697 mmHg 50%
    10:00 +13°C° 0 mm 1 mps 697 mmHg 45%
    11:00 +14°C° 0 mm 1 mps 697 mmHg 40%
    12:00 +14°C° 0 mm 1 mps 696 mmHg 39%
    13:00 +15°C° 0 mm 2 mps 696 mmHg 38%
    14:00 +15°C° 0 mm 2 mps 696 mmHg 37%
    15:00 +15°C° 0 mm 2 mps 696 mmHg 39%
    16:00 +14°C° 0 mm 2 mps 696 mmHg 42%
    17:00 +14°C° 0 mm 2 mps 696 mmHg 44%
    18:00 +13°C° 0 mm 1 mps 697 mmHg 47%
    19:00 +13°C° 0 mm 1 mps 697 mmHg 49%
    20:00 +12°C° 0 mm 1 mps 697 mmHg 52%
    21:00 +12°C° 0 mm 1 mps 697 mmHg 53%
    22:00 +11°C° 0 mm 1 mps 697 mmHg 55%
    23:00 +11°C° 0 mm 1 mps 697 mmHg 57%
    Show more